Date String (YYYY-MM-DD hh:mm:ss) UTC,Instrument flags,Ambient pressure (hPa),Sample flow (lpm),Bypass flow (lpm),Sample temperature (°C),Ambient temperature (°C),ASC tube jacket temperature (°C),LED temperature (°C),Box temperature (°C),Sample RH (%),Span deviation,Mass concentration (μg/m³),Mass concentration (μg/m³),Mass concentration (μg/m³)
DateTimeUTC,F1_M11,P_M11,Q1_M11,Q2_M11,T1_M11,T2_M11,T3_M11,T4_M11,T5_M11,U1_M11,ZSPAN_M11,X0_M11,X2_M11,X1_M11
2021-11-24 18:00:00,,0826.5,5.01,0.00,23.3,22.7,00.0,32.1,25.2,10.7,0000.0,0012.37,0003.47,0002.24
2021-11-24 18:01:00,,0826.5,4.99,0.00,23.3,22.7,00.0,32.1,25.2,10.2,0000.0,0011.70,0003.41,0002.20
2021-11-24 18:02:00,,0826.5,5.00,0.00,23.4,22.7,00.0,32.2,25.2,09.4,0000.0,0011.80,0003.35,0002.15
2021-11-24 18:03:00,,0826.4,5.00,0.00,23.4,22.8,00.0,32.2,25.2,09.4,0000.0,0011.83,0003.34,0002.10
2021-11-24 18:04:00,,0826.4,5.00,0.00,23.4,22.8,00.0,32.2,25.2,09.3,0000.0,0011.97,0003.26,0002.04
2021-11-24 18:05:00,,0826.5,4.99,0.00,23.4,22.8,00.0,32.2,25.3,09.2,0000.0,0011.40,0003.22,0001.98
2021-11-24 18:06:00,,0826.5,5.01,0.00,23.4,22.8,00.0,32.3,25.3,09.4,0000.0,0010.64,0003.14,0001.92
2021-11-24 18:07:00,,0826.5,4.99,0.00,23.4,22.8,00.0,32.3,25.3,09.9,0000.0,0009.79,0003.14,0001.89
2021-11-24 18:08:00,,0826.5,5.01,0.00,23.5,22.8,00.0,32.3,25.3,10.1,0000.0,0009.67,0003.19,0001.88
2021-11-24 18:09:00,,0826.5,5.00,0.00,23.5,22.8,00.0,32.3,25.3,10.1,0000.0,0010.28,0003.14,0001.86
2021-11-24 18:10:00,,0826.5,5.01,0.00,23.5,22.9,00.0,32.3,25.3,09.9,0000.0,0010.16,0003.05,0001.82
2021-11-24 18:11:00,,0826.5,5.00,0.00,23.5,22.9,00.0,32.3,25.4,09.8,0000.0,0010.47,0003.07,0001.80
2021-11-24 18:12:00,,0826.5,4.98,0.00,23.5,22.9,00.0,32.4,25.4,09.8,0000.0,0010.61,0003.09,0001.79
2021-11-24 18:13:00,,0826.5,5.02,0.00,23.6,22.9,00.0,32.4,25.4,09.8,0000.0,0010.54,0003.11,0001.81
2021-11-24 18:14:00,,0826.5,4.99,0.00,23.6,22.9,00.0,32.4,25.4,09.8,0000.0,0011.42,0003.08,0001.83
2021-11-24 18:15:00,,0826.5,5.01,0.00,23.6,22.9,00.0,32.4,25.4,09.6,0000.0,0011.05,0003.08,0001.85
2021-11-24 18:16:00,,0826.5,5.00,0.00,23.6,22.9,00.0,32.4,25.4,09.8,0000.0,0011.14,0003.08,0001.86
2021-11-24 18:17:00,,0826.5,5.01,0.00,23.6,22.9,00.0,32.5,25.5,09.9,0000.0,0012.77,0003.04,0001.87
2021-11-24 18:18:00,,0826.5,5.00,0.00,23.6,22.9,00.0,32.5,25.4,10.1,0000.0,0012.20,0003.01,0001.86
2021-11-24 18:19:00,,0826.5,5.00,0.00,23.6,22.9,00.0,32.5,25.4,09.8,0000.0,0011.45,0002.87,0001.85
2021-11-24 18:20:00,,0826.5,5.01,0.00,23.6,22.9,00.0,32.5,25.5,09.0,0000.0,0010.71,0002.89,0001.82
2021-11-24 18:21:00,,0826.5,5.01,0.00,23.6,22.9,00.0,32.5,25.5,09.1,0000.0,0010.60,0002.87,0001.80
2021-11-24 18:22:00,,0826.5,4.99,0.00,23.6,22.9,00.0,32.5,25.5,10.3,0000.0,0011.00,0002.85,0001.80
2021-11-24 18:23:00,,0826.5,5.00,0.00,23.6,22.9,00.0,32.5,25.5,10.4,0000.0,0011.72,0002.86,0001.80
2021-11-24 18:24:00,,0826.5,5.01,0.00,23.6,22.9,00.0,32.5,25.4,10.4,0000.0,0012.39,0002.90,0001.78
2021-11-24 18:25:00,,0826.5,5.00,0.00,23.6,22.9,00.0,32.5,25.4,10.4,0000.0,0012.16,0002.96,0001.79
2021-11-24 18:26:00,,0826.4,5.00,0.00,23.6,22.9,00.0,32.6,25.4,10.0,0000.0,0012.84,0003.01,0001.78
2021-11-24 18:27:00,,0826.5,5.01,0.00,23.6,22.9,00.0,32.6,25.5,09.7,0000.0,0012.82,0002.98,0001.76
2021-11-24 18:28:00,,0826.5,4.99,0.00,23.6,22.9,00.0,32.6,25.5,10.2,0000.0,0011.38,0003.02,0001.77
2021-11-24 18:29:00,,0826.5,5.01,0.00,23.6,22.9,00.0,32.6,25.5,10.4,0000.0,0011.29,0002.98,0001.78
2021-11-24 18:30:00,,0826.5,4.99,0.00,23.6,22.9,00.0,32.6,25.4,10.4,0000.0,0011.39,0002.96,0001.76
2021-11-24 18:31:00,,0826.5,5.01,0.00,23.6,22.9,00.0,32.6,25.4,10.4,0000.0,0011.51,0002.97,0001.76
2021-11-24 18:32:00,,0826.5,5.00,0.00,23.6,22.9,00.0,32.6,25.4,10.5,0000.0,0011.85,0003.05,0001.78
2021-11-24 18:33:00,,0826.5,5.00,0.00,23.6,22.9,00.0,32.6,25.4,10.4,0000.0,0011.66,0003.05,0001.78
2021-11-24 18:34:00,,0826.5,5.00,0.00,23.6,22.9,00.0,32.6,25.4,10.5,0000.0,0010.60,0003.02,0001.76
2021-11-24 18:35:00,,0826.5,4.99,0.00,23.6,22.9,00.0,32.6,25.4,10.4,0000.0,0010.55,0003.05,0001.77
2021-11-24 18:36:00,,0826.6,5.00,0.00,23.6,22.9,00.0,32.6,25.4,10.5,0000.0,0010.27,0003.02,0001.78
2021-11-24 18:37:00,,0826.5,5.00,0.00,23.6,22.9,00.0,32.6,25.3,10.5,0000.0,0010.57,0003.03,0001.78
2021-11-24 18:38:00,,0826.6,5.01,0.00,23.5,22.9,00.0,32.6,25.3,10.5,0000.0,0010.52,0003.08,0001.81
2021-11-24 18:39:00,,0826.6,4.99,0.00,23.5,22.8,00.0,32.6,25.2,10.5,0000.0,0010.47,0003.13,0001.82
2021-11-24 18:40:00,,0826.5,5.01,0.00,23.5,22.8,00.0,32.6,25.2,10.4,0000.0,0010.91,0003.16,0001.81
2021-11-24 18:41:00,,0826.6,5.00,0.00,23.5,22.8,00.0,32.6,25.2,10.3,0000.0,0011.85,0003.17,0001.80
2021-11-24 18:42:00,,0826.6,4.99,0.00,23.5,22.8,00.0,32.5,25.2,10.4,0000.0,0013.89,0003.20,0001.79
2021-11-24 18:43:00,,0826.7,5.01,0.00,23.4,22.7,00.0,32.5,25.1,10.4,0000.0,0014.18,0003.20,0001.78
2021-11-24 18:44:00,,0826.7,4.99,0.00,23.4,22.7,00.0,32.5,25.1,10.5,0000.0,0013.87,0003.23,0001.76
2021-11-24 18:45:00,,0826.7,5.00,0.00,23.4,22.7,00.0,32.5,25.1,10.4,0000.0,0014.06,0003.25,0001.76
2021-11-24 18:46:00,,0826.7,5.00,0.00,23.4,22.7,00.0,32.5,25.1,10.4,0000.0,0013.58,0003.26,0001.75
2021-11-24 18:47:00,,0826.7,5.00,0.00,23.4,22.6,00.0,32.5,25.1,10.4,0000.0,0013.40,0003.24,0001.74
2021-11-24 18:48:00,,0826.7,4.99,0.00,23.4,22.6,00.0,32.5,25.1,10.4,0000.0,0014.22,0003.26,0001.72
2021-11-24 18:49:00,,0826.7,5.00,0.00,23.3,22.6,00.0,32.5,25.1,10.3,0000.0,0014.63,0003.28,0001.72
2021-11-24 18:50:00,,0826.7,5.00,0.00,23.3,22.6,00.0,32.4,25.0,10.3,0000.0,0015.01,0003.29,0001.71
2021-11-24 18:51:00,,0826.7,5.00,0.00,23.3,22.6,00.0,32.4,25.0,10.2,0000.0,0014.85,0003.26,0001.71
2021-11-24 18:52:00,,0826.7,5.00,0.00,23.3,22.6,00.0,32.4,25.1,10.2,0000.0,0014.25,0003.25,0001.72
2021-11-24 18:53:00,,0826.7,5.02,0.00,23.3,22.6,00.0,32.4,25.1,10.3,0000.0,0012.75,0003.27,0001.73
2021-11-24 18:54:00,,0826.7,4.98,0.00,23.3,22.6,00.0,32.4,25.1,10.2,0000.0,0012.01,0003.30,0001.75
2021-11-24 18:55:00,,0826.7,5.01,0.00,23.3,22.6,00.0,32.4,25.1,10.1,0000.0,0012.94,0003.27,0001.77
2021-11-24 18:56:00,,0826.7,4.99,0.00,23.3,22.6,00.0,32.4,25.1,10.2,0000.0,0013.22,0003.26,0001.78
2021-11-24 18:57:00,,0826.7,5.00,0.00,23.3,22.6,00.0,32.4,25.1,10.1,0000.0,0013.96,0003.25,0001.79
2021-11-24 18:58:00,,0826.7,5.01,0.00,23.3,22.6,00.0,32.4,25.1,10.0,0000.0,0013.99,0003.20,0001.80
2021-11-24 18:59:00,,0826.8,4.99,0.00,23.3,22.6,00.0,32.4,25.1,10.0,0000.0,0012.71,0003.16,0001.80
